Tracking 31027 objects as of 19-Jul-2025
HD Live streaming from Space Station
objects crossing your sky now

STARLINK-3690

Track STARLINK-3690 now!
10-day predictions
STARLINK-3690 is classified as:


NORAD ID: 51964
Int'l Code: 2022-025J
Perigee: 553.5 km
Apogee: 555.3 km
Inclination: 53.1 °
Period: 95.6 minutes
Semi major axis: 6925 km
RCS: Unknown
Launch date: March 9, 2022
Source: United States (US)
Launch site: AIR FORCE EASTERN TEST RANGE (AFETR)
Your satellite tracking list
COSMOS 2251 DEB
Track 1 satellite(s)




NASA's NSSDC Master Catalog

Two Line Element Set (TLE):
1 51964U 22025J   25199.80635017 -.00000231  00000-0  34067-5 0  9994
2 51964  53.0574 356.9586 0001295  95.1610 264.9527 15.06395498186811
Source of the keplerian elements: AFSPC